Location: Nairn
(57.5833°N, 3.8667°W)
Time: 01:12:51
(UTC+00:00)

Transit 2A - Pass Details

Date: 30 November 2020
Orbit: 598 x 960 km, 66.7° (Epoch: 20 January)

Event Time Altitude Azimuth Distance (km) Brightness Sun altitude
Rises 16:34:08 0° 178° (S) 3,621 9.9 -7.0°
Reaches altitude 10° 16:37:08 10° 166° (SSE) 2,657 9.0 -7.4°
Maximum altitude 16:42:05 26° 113° (ESE) 1,734 7.5 -8.0°
Enters shadow 16:46:44 10° 60° (ENE) 2,504 8.0 -8.5°
